When you browse on this site, cookies collect data to enhance your experience and personalize the content and advertising you see.
Visit our Privacy Policy to learn more. By continuing to use the site, you agree to this use of cookies and data.
  • In Switzerland
  • List of Countries
  • For 7 days
  • Water Temperature
  • Satellite Maps
  • Weather Map
  • Weather Widgets
  • user-avatar
    Login

    Hourly Weather Plebanivka

    Today, 19 February, Tuesday

    Time Temperature Precipitation Wind Pressure Humidity
    00:00 +1°C° 0 mm 2 mps 740 mmHg 85%
    01:00 +1°C° 0 mm 2 mps 740 mmHg 85%
    02:00 +1°C° 0 mm 2 mps 740 mmHg 87%
    03:00 +1°C° 0 mm 2 mps 740 mmHg 87%
    04:00 -1°C° 0 mm 2 mps 740 mmHg 87%
    05:00 -1°C° 0 mm 3 mps 739 mmHg 86%
    06:00 -1°C° 0 mm 3 mps 739 mmHg 85%
    07:00 -1°C° 0 mm 3 mps 739 mmHg 84%
    08:00 -1°C° 0 mm 4 mps 739 mmHg 82%
    09:00 0°C° 0 mm 4 mps 739 mmHg 78%
    10:00 +1°C° 0 mm 5 mps 739 mmHg 74%
    11:00 +2°C° 0 mm 5 mps 739 mmHg 70%
    12:00 +3°C° 0 mm 5 mps 738 mmHg 69%
    13:00 +4°C° 0 mm 6 mps 738 mmHg 68%
    14:00 +5°C° 0 mm 6 mps 737 mmHg 66%
    15:00 +5°C° 0 mm 5 mps 737 mmHg 69%
    16:00 +5°C° 0 mm 5 mps 737 mmHg 71%
    17:00 +5°C° 0 mm 4 mps 736 mmHg 74%
    18:00 +4°C° 0 mm 4 mps 736 mmHg 78%
    19:00 +3°C° 0 mm 4 mps 736 mmHg 82%
    20:00 +3°C° 0 mm 4 mps 735 mmHg 86%
    21:00 +1°C° 0 mm 4 mps 735 mmHg 87%
    22:00 +1°C° 0 mm 4 mps 735 mmHg 89%
    23:00 +2°C° 0 mm 3 mps 735 mmHg 91%

    Tomorrow, 20 February, Wednesday

    Time Temperature Precipitation Wind Pressure Humidity
    00:00 +1°C° 0 mm 3 mps 735 mmHg 92%
    01:00 +1°C° 0 mm 3 mps 734 mmHg 93%
    02:00 +1°C° 0 mm 2 mps 734 mmHg 95%
    03:00 +1°C° 0 mm 2 mps 734 mmHg 94%
    04:00 +1°C° 0 mm 2 mps 733 mmHg 93%
    05:00 +1°C° 0 mm 2 mps 733 mmHg 93%
    06:00 +1°C° 0 mm 2 mps 733 mmHg 91%
    07:00 +1°C° 0 mm 2 mps 733 mmHg 88%
    08:00 0°C° 0 mm 3 mps 733 mmHg 86%
    09:00 +1°C° 0 mm 4 mps 733 mmHg 82%
    10:00 +2°C° 0 mm 5 mps 734 mmHg 78%
    11:00 +4°C° 0 mm 6 mps 734 mmHg 74%
    12:00 +4°C° 0.1 mm 6 mps 734 mmHg 74%
    13:00 +4°C° 0.1 mm 6 mps 734 mmHg 74%
    14:00 +4°C° 0.1 mm 6 mps 734 mmHg 73%
    15:00 +5°C° 0 mm 5 mps 734 mmHg 73%
    16:00 +3°C° 0 mm 5 mps 734 mmHg 74%
    17:00 +3°C° 0 mm 5 mps 734 mmHg 74%
    18:00 +3°C° 0 mm 4 mps 735 mmHg 75%
    19:00 +3°C° 0 mm 4 mps 735 mmHg 77%
    20:00 +1°C° 0 mm 4 mps 735 mmHg 79%
    21:00 +1°C° 0 mm 4 mps 736 mmHg 79%
    22:00 +1°C° 0 mm 5 mps 736 mmHg 80%
    23:00 +1°C° 0 mm 5 mps 736 mmHg 81%

    Day after tomorrow, 21 February, Thursday

    Time Temperature Precipitation Wind Pressure Humidity
    00:00 +1°C° 0 mm 5 mps 736 mmHg 80%
    01:00 +1°C° 0 mm 5 mps 736 mmHg 80%
    02:00 +1°C° 0 mm 6 mps 736 mmHg 79%
    03:00 -1°C° 0 mm 6 mps 736 mmHg 82%
    04:00 -1°C° 0 mm 6 mps 736 mmHg 85%
    05:00 -2°C° 0 mm 6 mps 736 mmHg 87%
    06:00 -2°C° 0 mm 6 mps 736 mmHg 86%
    07:00 -1°C° 0 mm 6 mps 736 mmHg 85%
    08:00 -1°C° 0 mm 6 mps 736 mmHg 84%
    09:00 -1°C° 0 mm 7 mps 736 mmHg 78%
    10:00 0°C° 0 mm 8 mps 736 mmHg 72%
    11:00 +1°C° 0 mm 8 mps 736 mmHg 66%
    12:00 +1°C° 0 mm 8 mps 736 mmHg 65%
    13:00 +2°C° 0 mm 8 mps 736 mmHg 63%
    14:00 +2°C° 0 mm 8 mps 736 mmHg 61%
    15:00 +3°C° 0 mm 7 mps 736 mmHg 66%
    16:00 +2°C° 0 mm 6 mps 736 mmHg 71%
    17:00 +2°C° 0 mm 5 mps 736 mmHg 75%
    18:00 +2°C° 0.1 mm 5 mps 736 mmHg 79%
    19:00 +3°C° 0.1 mm 4 mps 736 mmHg 84%
    20:00 +3°C° 0.1 mm 4 mps 736 mmHg 88%
    21:00 +3°C° 0.3 mm 3 mps 736 mmHg 88%
    22:00 +2°C° 0.3 mm 3 mps 736 mmHg 89%
    23:00 +2°C° 0.3 mm 3 mps 736 mmHg 90%

    22 February, Friday

    Time Temperature Precipitation Wind Pressure Humidity
    00:00 +3°C° 0.2 mm 2 mps 736 mmHg 90%
    01:00 +3°C° 0.2 mm 2 mps 735 mmHg 91%
    02:00 +2°C° 0.2 mm 2 mps 735 mmHg 91%
    03:00 +2°C° 0.3 mm 2 mps 735 mmHg 91%
    04:00 0°C° 0.3 mm 3 mps 734 mmHg 91%
    05:00 -1°C° 0.3 mm 3 mps 734 mmHg 92%
    06:00 -2°C° 0.2 mm 4 mps 734 mmHg 89%
    07:00 -4°C° 0.2 mm 5 mps 735 mmHg 86%
    08:00 -5°C° 0.2 mm 6 mps 735 mmHg 83%
    09:00 -5°C° 0.2 mm 6 mps 736 mmHg 82%
    10:00 -6°C° 0.2 mm 7 mps 736 mmHg 80%
    11:00 -7°C° 0.2 mm 7 mps 737 mmHg 79%
    12:00 -7°C° 0.1 mm 7 mps 738 mmHg 72%
    13:00 -7°C° 0.1 mm 7 mps 739 mmHg 65%
    14:00 -7°C° 0.1 mm 8 mps 740 mmHg 59%
    15:00 -8°C° 0 mm 7 mps 740 mmHg 58%
    16:00 -8°C° 0 mm 7 mps 741 mmHg 56%
    17:00 -9°C° 0 mm 7 mps 741 mmHg 55%
    18:00 -9°C° 0 mm 7 mps 742 mmHg 55%
    19:00 -10°C° 0 mm 6 mps 742 mmHg 54%
    20:00 -10°C° 0 mm 6 mps 743 mmHg 54%
    21:00 -10°C° 0 mm 6 mps 743 mmHg 54%
    22:00 -10°C° 0 mm 6 mps 744 mmHg 54%
    23:00 -10°C° 0 mm 6 mps 744 mmHg 54%

    23 February, Saturday

    Time Temperature Precipitation Wind Pressure Humidity
    00:00 -10°C° 0 mm 6 mps 744 mmHg 55%
    01:00 -10°C° 0 mm 6 mps 744 mmHg 57%
    02:00 -10°C° 0 mm 6 mps 744 mmHg 58%
    03:00 -10°C° 0 mm 6 mps 744 mmHg 58%
    04:00 -10°C° 0 mm 6 mps 744 mmHg 58%
    05:00 -10°C° 0 mm 6 mps 744 mmHg 58%
    06:00 -10°C° 0 mm 6 mps 744 mmHg 59%
    07:00 -10°C° 0 mm 6 mps 744 mmHg 61%
    08:00 -11°C° 0 mm 6 mps 745 mmHg 62%
    09:00 -10°C° 0 mm 6 mps 745 mmHg 58%
    10:00 -10°C° 0 mm 6 mps 745 mmHg 55%
    11:00 -10°C° 0 mm 6 mps 745 mmHg 51%
    12:00 -10°C° 0 mm 6 mps 745 mmHg 51%
    13:00 -9°C° 0 mm 6 mps 745 mmHg 51%
    14:00 -9°C° 0 mm 6 mps 745 mmHg 51%
    15:00 -9°C° 0 mm 6 mps 745 mmHg 52%
    16:00 -9°C° 0 mm 6 mps 745 mmHg 53%
    17:00 -8°C° 0 mm 5 mps 745 mmHg 55%
    18:00 -10°C° 0 mm 5 mps 745 mmHg 57%
    19:00 -9°C° 0 mm 4 mps 745 mmHg 59%
    20:00 -8°C° 0 mm 3 mps 746 mmHg 62%
    21:00 -8°C° 0 mm 3 mps 746 mmHg 62%
    22:00 -8°C° 0 mm 3 mps 746 mmHg 62%
    23:00 -9°C° 0 mm 3 mps 746 mmHg 62%

    24 February, Sunday

    Time Temperature Precipitation Wind Pressure Humidity
    00:00 -9°C° 0 mm 3 mps 746 mmHg 63%
    01:00 -9°C° 0 mm 3 mps 746 mmHg 64%
    02:00 -9°C° 0 mm 3 mps 746 mmHg 66%
    03:00 -11°C° 0 mm 4 mps 746 mmHg 67%
    04:00 -11°C° 0 mm 4 mps 746 mmHg 69%
    05:00 -11°C° 0 mm 4 mps 746 mmHg 71%
    06:00 -11°C° 0 mm 4 mps 746 mmHg 72%
    07:00 -11°C° 0 mm 4 mps 746 mmHg 72%
    08:00 -12°C° 0 mm 5 mps 747 mmHg 73%
    09:00 -12°C° 0 mm 5 mps 747 mmHg 69%
    10:00 -11°C° 0 mm 5 mps 747 mmHg 65%
    11:00 -10°C° 0 mm 5 mps 747 mmHg 61%
    12:00 -8°C° 0 mm 5 mps 747 mmHg 58%
    13:00 -8°C° 0 mm 5 mps 747 mmHg 55%
    14:00 -7°C° 0 mm 5 mps 747 mmHg 52%
    15:00 -7°C° 0 mm 5 mps 747 mmHg 51%
    16:00 -7°C° 0 mm 5 mps 747 mmHg 50%
    17:00 -7°C° 0 mm 5 mps 747 mmHg 49%
    18:00 -8°C° 0 mm 4 mps 747 mmHg 51%
    19:00 -8°C° 0 mm 4 mps 747 mmHg 53%
    20:00 -8°C° 0 mm 3 mps 747 mmHg 54%
    21:00 -8°C° 0 mm 3 mps 747 mmHg 54%
    22:00 -8°C° 0 mm 3 mps 748 mmHg 54%
    23:00 -8°C° 0 mm 3 mps 748 mmHg 55%
    Show more